STARLINK-35347, 65907

Orbit data source: Space-Track

STARLINK-35347, 65907 is a payload satellite owned by SpaceX/Seattle (US) in LEO that was launched on Tue, 07 Oct 2025 UTC via an FALCON 9 launch vehicle from the Air Force Eastern Test Range (AFETR). Payload-class satellites include a variety of spacecraft equipped with specific instruments for various scientific and technological missions. These include communications satellites like Starlink; space stations such as the ISS; scientific satellites like the Hubble; Earth observation satellites from companies like Planet Labs, Umbra, and HawkEye 360; GPS; miniature CubeSats for education and research; and military/defense satellites.

Loading next visibility...
Identifier
65907, 2025-224AB
Orbit
LEO
Country
Flag of USUS
Related business
Manufacturer
SpaceX/Seattle
Mission
Operational Commercial Communications
Bus & Motor
STARLINK V2MO, Unknown motor
Mass
575 kg wet, ~530 kg dry
Launch date (UTC)
2025-10-07 (4 months ago)
Launch vehicle
FALCON 9
Launch site
Air Force Eastern Test Range (AFETR)
Object type
Payload
Rocket body
Debris
Shape & HBR
Box + 2 Pan, 17.7 m
Radar Cross Section
36.964 m²

Expand to show TLE details & history
Last TLE update: 1 day ago

TLE from 1 day ago
0 STARLINK-35347
1 65907U 25224AB  26022.55773373  .00033048  00000-0  11235-2 0  9996
2 65907  53.1586 225.4513 0002131  77.3696 282.7543 15.30184197 17798
Epoch: 2026-01-22T13:23Z
TLE epoch observation values (Epoch: 2026-01-22T13:23:08.194Z)
Latitude
-0.00001°
Longitude
-97.24203°
Altitude
475.84 km
Speed
7.629 km/s
True Right ascension
15h 01m 48s
True Declination
0° 00' 00"
Sunlit
Object was in daylight at epoch
Visualization orbit readout
Latitude
Unknown
Longitude
Unknown
Altitude
Unknown
Speed
Unknown
Apparent Right ascension
Unknown
Apparent Declination
Unknown
Sunlit
N/A
Visualization observer readout
Local Sidereal Time
21:17:50
Azimuth
Unknown
Elevation
Unknown
Doppler factor
Unknown
Orbital elements
Apogee altitude
476.979 km
Perigee altitude
474.058 km
Semi-major axis
6,853.656 km
Eccentricity
0.00021
Inclination
53.1586°
RAAN
225.4513°
Arg. of periapsis
77.3696°
True anomaly
282.73048°
Mean anomaly
282.7543°
Eccentric anomaly
282.74239°
Mean motion
3.82525 °/min
Orbital period
94.11 mins
BSTAR
0.0011235
Loading maneuver chart data...
Computing Atmospheric mass density...
Loading historical data...
Loading historical data...
Loading historical data...
Loading historical data...
Loading historical data...
Loading historical data...
Loading historical data...

Documentation

Showing up to 5 results
|